| time (UTC) | temp F | wind direction | speed knots | gust knots | rain 1hr in | rain 24hr in | rain mn in | humidity % | barometer mb |
| 20260507212059 | 60 | 338 | 1.7 | 5.2 | 0.00 | 0.04 | 0.00 | 22 | 1004.7 |
| 20260507211019 | 60 | 225 | 1.7 | 6.1 | 0.00 | 0.04 | 0.00 | 22 | 1004.7 |
| 20260507210039 | 60 | 225 | 3.5 | 7.8 | 0.00 | 0.04 | 0.00 | 23 | 1004.6 |
| 20260507205019 | 60 | 225 | 2.6 | 7.8 | 0.00 | 0.04 | 0.00 | 21 | 1004.6 |
| 20260507204020 | 59 | 225 | 1.7 | 7.8 | 0.00 | 0.04 | 0.00 | 24 | 1004.5 |
| 20260507203019 | 59 | 225 | 3.5 | 7.8 | 0.00 | 0.05 | 0.00 | 24 | 1004.6 |
| 20260507202039 | 59 | 248 | 2.6 | 7.0 | 0.00 | 0.06 | 0.00 | 24 | 1004.6 |
| 20260507201019 | 60 | 225 | 3.5 | 7.8 | 0.00 | 0.07 | 0.00 | 23 | 1004.6 |
| 20260507200039 | 60 | 225 | 3.5 | 7.0 | 0.00 | 0.07 | 0.00 | 23 | 1004.6 |
| 20260507195019 | 60 | 248 | 3.5 | 8.7 | 0.00 | 0.07 | 0.00 | 22 | 1004.8 |
| 20260507194019 | 59 | 225 | 2.6 | 7.0 | 0.00 | 0.08 | 0.00 | 25 | 1004.6 |
| 20260507193019 | 59 | 248 | 3.5 | 9.6 | 0.00 | 0.08 | 0.00 | 24 | 1004.7 |
| 20260507192019 | 59 | 270 | 2.6 | 7.8 | 0.00 | 0.08 | 0.00 | 24 | 1004.7 |
| 20260507191019 | 59 | 248 | 3.5 | 7.8 | 0.00 | 0.08 | 0.00 | 24 | 1004.8 |
| 20260507190019 | 59 | 248 | 3.5 | 8.7 | 0.00 | 0.09 | 0.00 | 26 | 1004.9 |
| 20260507185019 | 58 | 225 | 2.6 | 6.1 | 0.00 | 0.10 | 0.00 | 29 | 1004.9 |
| 20260507184019 | 58 | 225 | 2.6 | 7.0 | 0.00 | 0.11 | 0.00 | 30 | 1005.0 |
| 20260507183019 | 58 | 270 | 1.7 | 7.8 | 0.00 | 0.13 | 0.00 | 27 | 1005.0 |
| 20260507182019 | 59 | 225 | 3.5 | 8.7 | 0.00 | 0.14 | 0.00 | 29 | 1005.1 |
| 20260507181039 | 59 | 248 | 2.6 | 9.6 | 0.00 | 0.15 | 0.00 | 29 | 1005.0 |
| 20260507180019 | 59 | 225 | 3.5 | 7.8 | 0.00 | 0.16 | 0.00 | 28 | 1005.0 |
| 20260507175019 | 59 | 225 | 4.3 | 10.4 | 0.00 | 0.17 | 0.00 | 32 | 1005.0 |
| 20260507174019 | 59 | 248 | 3.5 | 7.8 | 0.00 | 0.17 | 0.00 | 27 | 1005.3 |
| 20260507173019 | 59 | 293 | 2.6 | 9.6 | 0.00 | 0.17 | 0.00 | 30 | 1005.4 |
| 20260507172019 | 58 | 248 | 2.6 | 7.8 | 0.00 | 0.17 | 0.00 | 30 | 1005.4 |
| 20260507171039 | 58 | 225 | 3.5 | 8.7 | 0.00 | 0.17 | 0.00 | 35 | 1005.6 |
| 20260507170018 | 58 | 293 | 2.6 | 7.8 | 0.00 | 0.17 | 0.00 | 38 | 1005.5 |
| 20260507165038 | 57 | 225 | 2.6 | 10.4 | 0.00 | 0.17 | 0.00 | 39 | 1005.4 |
| 20260507164019 | 57 | 225 | 2.6 | 7.0 | 0.00 | 0.17 | 0.00 | 41 | 1005.8 |
| 20260507163019 | 56 | 248 | 2.6 | 7.0 | 0.00 | 0.17 | 0.00 | 46 | 1006.0 |
| 20260507162019 | 55 | 225 | 2.6 | 6.1 | 0.00 | 0.17 | 0.00 | 44 | 1006.1 |
| 20260507161018 | 56 | 270 | 2.6 | 7.0 | 0.00 | 0.17 | 0.00 | 45 | 1006.1 |
| 20260507160039 | 55 | 248 | 1.7 | 5.2 | 0.00 | 0.17 | 0.00 | 46 | 1006.1 |
| 20260507155019 | 56 | 270 | 2.6 | 7.8 | 0.00 | 0.17 | 0.00 | 45 | 1006.3 |
| 20260507154019 | 57 | 270 | 1.7 | 8.7 | 0.00 | 0.18 | 0.00 | 44 | 1006.4 |
| 20260507153018 | 56 | 225 | 3.5 | 8.7 | 0.00 | 0.18 | 0.00 | 45 | 1006.6 |
| 20260507152018 | 56 | 248 | 2.6 | 7.0 | 0.00 | 0.18 | 0.00 | 50 | 1006.6 |
| 20260507151019 | 56 | 248 | 2.6 | 7.8 | 0.00 | 0.18 | 0.00 | 49 | 1006.6 |
| 20260507150019 | 56 | 293 | 1.7 | 7.0 | 0.00 | 0.18 | 0.00 | 49 | 1006.7 |
| 20260507145018 | 55 | 248 | 2.6 | 5.2 | 0.00 | 0.18 | 0.00 | 52 | 1006.7 |
| 20260507144038 | 55 | 248 | 3.5 | 11.3 | 0.00 | 0.18 | 0.00 | 50 | 1006.6 |
| 20260507143019 | 54 | 225 | 3.5 | 7.0 | 0.00 | 0.18 | 0.00 | 53 | 1006.4 |
| 20260507142019 | 54 | 203 | 2.6 | 8.7 | 0.00 | 0.18 | 0.00 | 52 | 1006.6 |
| 20260507141019 | 54 | 225 | 3.5 | 7.8 | 0.00 | 0.18 | 0.00 | 55 | 1006.6 |
| 20260507140019 | 54 | 248 | 2.6 | 7.0 | 0.00 | 0.18 | 0.00 | 53 | 1006.7 |
| 20260507135038 | 53 | 270 | 2.6 | 7.0 | 0.00 | 0.18 | 0.00 | 54 | 1006.6 |
| 20260507134018 | 52 | 248 | 1.7 | 6.1 | 0.00 | 0.18 | 0.00 | 56 | 1006.6 |
| 20260507133058 | 52 | 270 | 1.7 | 5.2 | 0.00 | 0.18 | 0.00 | 57 | 1006.7 |
| 20260507132018 | 51 | 293 | 1.7 | 5.2 | 0.00 | 0.18 | 0.00 | 60 | 1006.9 |
| 20260507131018 | 51 | 248 | 2.6 | 5.2 | 0.00 | 0.18 | 0.00 | 59 | 1006.8 |
| 20260507130018 | 51 | 225 | 1.7 | 4.3 | 0.00 | 0.18 | 0.00 | 62 | 1006.7 |
| 20260507125039 | 50 | 248 | 1.7 | 5.2 | 0.00 | 0.18 | 0.00 | 62 | 1006.9 |
| 20260507124038 | 50 | 270 | 1.7 | 4.3 | 0.00 | 0.18 | 0.00 | 64 | 1006.7 |
| 20260507123018 | 49 | 248 | 0.9 | 3.5 | 0.00 | 0.18 | 0.00 | 65 | 1006.7 |
| 20260507122018 | 49 | 293 | 1.7 | 5.2 | 0.00 | 0.18 | 0.00 | 65 | 1006.8 |
| 20260507121018 | 48 | 270 | 1.7 | 3.5 | 0.00 | 0.18 | 0.00 | 66 | 1006.8 |
| 20260507120019 | 48 | 338 | 1.7 | 4.3 | 0.00 | 0.18 | 0.00 | 68 | 1006.9 |
| 20260507115058 | 47 | 0.0 | 3.5 | 0.00 | 0.18 | 0.00 | 69 | 1006.9 | |
| 20260507114018 | 46 | 225 | 1.7 | 3.5 | 0.00 | 0.18 | 0.00 | 71 | 1006.9 |
| 20260507113018 | 46 | 270 | 0.9 | 3.5 | 0.00 | 0.18 | 0.00 | 72 | 1006.7 |
| 20260507112018 | 45 | 270 | 0.9 | 2.6 | 0.00 | 0.18 | 0.00 | 73 | 1006.7 |
| 20260507111039 | 45 | 0.0 | 1.7 | 0.00 | 0.18 | 0.00 | 73 | 1006.6 | |
| 20260507110059 | 45 | 0.0 | 0.0 | 0.00 | 0.18 | 0.00 | 74 | 1006.5 | |
| 20260507105038 | 45 | 0.0 | 1.7 | 0.00 | 0.18 | 0.00 | 74 | 1006.7 | |
| 20260507104018 | 45 | 0 | 0.9 | 4.3 | 0.00 | 0.18 | 0.00 | 74 | 1006.6 |
| 20260507103038 | 45 | 0.0 | 2.6 | 0.00 | 0.18 | 0.00 | 74 | 1006.6 | |
| 20260507102020 | 45 | 0 | 0.9 | 4.3 | 0.00 | 0.18 | 0.00 | 74 | 1006.9 |
| 20260507101021 | 45 | 0.0 | 1.7 | 0.00 | 0.18 | 0.00 | 74 | 1006.8 | |
| 20260507100020 | 45 | 0.0 | 1.7 | 0.00 | 0.18 | 0.00 | 74 | 1007.0 | |
| 20260507095020 | 45 | 0.0 | 3.5 | 0.00 | 0.18 | 0.00 | 74 | 1006.9 | |
| 20260507094038 | 45 | 270 | 0.9 | 2.6 | 0.00 | 0.18 | 0.00 | 74 | 1006.7 |
| 20260507093018 | 45 | 0.0 | 1.7 | 0.00 | 0.18 | 0.00 | 74 | 1006.7 | |
| 20260507092018 | 45 | 0.0 | 1.7 | 0.00 | 0.18 | 0.00 | 74 | 1006.7 | |
| 20260507091020 | 45 | 338 | 0.9 | 2.6 | 0.00 | 0.18 | 0.00 | 74 | 1006.2 |
| 20260507090020 | 46 | 338 | 0.9 | 2.6 | 0.00 | 0.18 | 0.00 | 74 | 1006.0 |
| 20260507085018 | 46 | 0 | 0.9 | 4.3 | 0.00 | 0.18 | 0.00 | 74 | 1006.2 |
| 20260507084018 | 46 | 0 | 0.9 | 1.7 | 0.00 | 0.18 | 0.00 | 73 | 1006.6 |
| 20260507083018 | 46 | 338 | 0.9 | 3.5 | 0.00 | 0.18 | 0.00 | 73 | 1006.1 |
| 20260507082040 | 46 | 338 | 0.9 | 2.6 | 0.00 | 0.18 | 0.00 | 73 | 1006.4 |
| 20260507081020 | 46 | 0 | 0.9 | 3.5 | 0.00 | 0.18 | 0.00 | 73 | 1006.1 |
| 20260507080040 | 46 | 158 | 0.9 | 3.5 | 0.00 | 0.18 | 0.00 | 73 | 1005.9 |
| 20260507075020 | 46 | 293 | 0.9 | 4.3 | 0.00 | 0.18 | 0.00 | 73 | 1005.6 |
| 20260507074040 | 46 | 293 | 1.7 | 3.5 | 0.00 | 0.18 | 0.00 | 72 | 1005.8 |
| 20260507073020 | 46 | 0 | 1.7 | 5.2 | 0.00 | 0.18 | 0.00 | 72 | 1005.5 |
| 20260507072020 | 47 | 0 | 0.9 | 5.2 | 0.00 | 0.18 | 0.00 | 72 | 1005.6 |
| 20260507071020 | 47 | 225 | 1.7 | 4.3 | 0.00 | 0.18 | 0.00 | 72 | 1005.4 |
| 20260507070040 | 47 | 338 | 1.7 | 7.0 | 0.00 | 0.18 | 0.00 | 72 | 1005.3 |
| 20260507065020 | 47 | 293 | 1.7 | 7.0 | 0.00 | 0.18 | 0.00 | 72 | 1005.5 |
| 20260507064018 | 47 | 270 | 1.7 | 7.0 | 0.00 | 0.18 | 0.00 | 72 | 1005.4 |
| 20260507063040 | 47 | 270 | 0.9 | 5.2 | 0.00 | 0.18 | 0.00 | 73 | 1005.0 |
| 20260507062020 | 47 | 248 | 1.7 | 5.2 | 0.00 | 0.18 | 0.00 | 73 | 1005.3 |
| 20260507061020 | 47 | 248 | 1.7 | 4.3 | 0.00 | 0.18 | 0.00 | 73 | 1005.3 |
| 20260507060020 | 48 | 225 | 1.7 | 4.3 | 0.00 | 0.18 | 0.00 | 73 | 1005.1 |
| 20260507055020 | 48 | 248 | 0.9 | 3.5 | 0.00 | 0.18 | 0.00 | 73 | 1005.1 |
| 20260507054019 | 48 | 248 | 1.7 | 4.3 | 0.00 | 0.18 | 0.00 | 73 | 1004.9 |
| 20260507053020 | 48 | 270 | 1.7 | 5.2 | 0.00 | 0.18 | 0.00 | 73 | 1004.9 |
| 20260507052019 | 48 | 270 | 1.7 | 6.1 | 0.00 | 0.18 | 0.00 | 74 | 1005.0 |
| 20260507051020 | 48 | 270 | 1.7 | 5.2 | 0.00 | 0.18 | 0.00 | 74 | 1004.9 |
| 20260507050020 | 48 | 248 | 1.7 | 6.1 | 0.00 | 0.18 | 0.00 | 74 | 1004.8 |
| 20260507045039 | 49 | 248 | 2.6 | 7.8 | 0.00 | 0.18 | 0.00 | 74 | 1005.2 |
| 20260507044019 | 49 | 270 | 1.7 | 6.1 | 0.00 | 0.18 | 0.00 | 74 | 1005.1 |
| 20260507043019 | 49 | 315 | 1.7 | 6.1 | 0.02 | 0.18 | 0.00 | 74 | 1004.9 |
| 20260507042019 | 49 | 270 | 1.7 | 7.0 | 0.02 | 0.18 | 0.00 | 74 | 1004.8 |
| 20260507041200 | 50 | 270 | 2.6 | 6.1 | 0.02 | 0.18 | 0.00 | 73 | 1004.7 |
| 20260507040019 | 50 | 270 | 1.7 | 6.1 | 0.02 | 0.18 | 0.18 | 74 | 1004.8 |
| 20260507035019 | 51 | 270 | 1.7 | 8.7 | 0.02 | 0.18 | 0.18 | 74 | 1004.7 |
| 20260507034020 | 52 | 315 | 1.7 | 5.2 | 0.02 | 0.18 | 0.18 | 74 | 1004.9 |
| 20260507033019 | 52 | 225 | 2.6 | 7.8 | 0.00 | 0.16 | 0.16 | 73 | 1005.0 |
| 20260507032020 | 53 | 248 | 3.5 | 9.6 | 0.00 | 0.16 | 0.16 | 75 | 1005.1 |
| 20260507031020 | 53 | 248 | 1.7 | 7.0 | 0.01 | 0.16 | 0.16 | 77 | 1004.8 |
| 20260507030020 | 54 | 248 | 1.7 | 7.0 | 0.01 | 0.16 | 0.16 | 77 | 1004.6 |
| 20260507025019 | 54 | 248 | 1.7 | 7.0 | 0.01 | 0.16 | 0.16 | 77 | 1004.4 |
| 20260507024020 | 54 | 248 | 1.7 | 6.1 | 0.01 | 0.16 | 0.16 | 77 | 1004.3 |
| 20260507023020 | 55 | 248 | 1.7 | 6.1 | 0.01 | 0.16 | 0.16 | 77 | 1004.5 |
| 20260507022020 | 56 | 248 | 1.7 | 5.2 | 0.01 | 0.16 | 0.16 | 77 | 1004.5 |
| 20260507021019 | 56 | 270 | 1.7 | 6.1 | 0.00 | 0.15 | 0.15 | 77 | 1004.5 |
| 20260507020019 | 57 | 248 | 0.9 | 3.5 | 0.00 | 0.15 | 0.15 | 76 | 1004.6 |
| 20260507015019 | 58 | 248 | 1.7 | 6.1 | 0.00 | 0.15 | 0.15 | 79 | 1004.5 |
| 20260507014019 | 59 | 203 | 1.7 | 3.5 | 0.00 | 0.15 | 0.15 | 83 | 1004.4 |
| 20260507013020 | 59 | 203 | 2.6 | 4.3 | 0.00 | 0.15 | 0.15 | 83 | 1004.2 |
| 20260507012020 | 59 | 203 | 3.5 | 6.1 | 0.00 | 0.15 | 0.15 | 83 | 1004.3 |
| 20260507011019 | 59 | 180 | 3.5 | 6.1 | 0.00 | 0.15 | 0.15 | 83 | 1004.2 |
| 20260507010039 | 59 | 180 | 4.3 | 9.6 | 0.00 | 0.15 | 0.15 | 83 | 1004.1 |
| 20260507005019 | 59 | 180 | 4.3 | 7.8 | 0.00 | 0.15 | 0.15 | 83 | 1004.2 |
| 20260507004019 | 59 | 180 | 5.2 | 10.4 | 0.00 | 0.15 | 0.15 | 83 | 1004.2 |
| 20260507003020 | 59 | 180 | 6.1 | 9.6 | 0.00 | 0.15 | 0.15 | 83 | 1004.0 |
| 20260507002020 | 58 | 180 | 7.0 | 10.4 | 0.00 | 0.15 | 0.15 | 83 | 1003.9 |
| 20260507001019 | 58 | 180 | 7.0 | 11.3 | 0.00 | 0.15 | 0.15 | 83 | 1003.8 |
| 20260507000019 | 58 | 180 | 5.2 | 8.7 | 0.00 | 0.15 | 0.15 | 83 | 1003.9 |
| 20260506235019 | 59 | 180 | 6.1 | 9.6 | 0.00 | 0.15 | 0.15 | 83 | 1004.0 |
| 20260506234019 | 59 | 180 | 6.1 | 10.4 | 0.00 | 0.15 | 0.15 | 83 | 1004.0 |
| 20260506233019 | 59 | 180 | 7.0 | 11.3 | 0.00 | 0.15 | 0.15 | 82 | 1003.9 |
| 20260506232019 | 59 | 180 | 7.0 | 9.6 | 0.00 | 0.15 | 0.15 | 83 | 1003.9 |
| 20260506231019 | 59 | 180 | 7.0 | 10.4 | 0.00 | 0.15 | 0.15 | 82 | 1004.0 |
| 20260506230019 | 59 | 180 | 6.1 | 13.0 | 0.00 | 0.15 | 0.15 | 82 | 1004.0 |
| 20260506225059 | 59 | 180 | 5.2 | 9.6 | 0.00 | 0.15 | 0.15 | 83 | 1004.1 |
| 20260506224019 | 60 | 180 | 6.1 | 10.4 | 0.00 | 0.15 | 0.15 | 83 | 1003.9 |
| 20260506223019 | 60 | 180 | 7.0 | 9.6 | 0.01 | 0.15 | 0.15 | 83 | 1004.1 |
| 20260506222019 | 60 | 180 | 6.1 | 10.4 | 0.01 | 0.15 | 0.15 | 83 | 1004.1 |
| 20260506221019 | 60 | 180 | 6.1 | 9.6 | 0.01 | 0.15 | 0.15 | 83 | 1004.2 |
| 20260506220039 | 60 | 180 | 7.8 | 12.2 | 0.01 | 0.15 | 0.15 | 83 | 1004.3 |
| 20260506215019 | 60 | 180 | 7.0 | 11.3 | 0.01 | 0.15 | 0.15 | 83 | 1004.4 |
| 20260506214028 | 60 | 180 | 7.0 | 10.4 | 0.01 | 0.15 | 0.15 | 83 | 1004.5 |
| 20260506213119 | 60 | 180 | 7.0 | 11.3 | 0.01 | 0.14 | 0.14 | 83 | 1004.6 |